Torna al catalogo

CZ-4B DEB

AttivoSSO
NORAD 35573·DEBRIS·🇨🇳 China

Lanciato Oct 25, 2008 da Taiyuan Satellite Launch Center

Loading…

Prossimi Passaggi (prossime 24 ore)

TLE

AggiornatoSource: Space-Track

Epoca: Sep 14, 2026, 12:59 UTC

1 35573U 08053J   26257.54161279  .00033529  00000-0  11097-2 0  9998
2 35573  97.7930   6.6917 0043938   7.5621 352.6272 15.30305000947461

Traccia CZ-4B DEB in tempo reale con AllMySat

Download on the App Store